World > North America > United States > Missouri > Stover  

Stover, MO Hourly Weather Updates

Feedback E-mail the Weather

Quick Clicks

Stover, MO Weather Maps

°F °C°F °C
Stover Weather Map
UTC Time: 5/18/2024, 19:20
Your Time:

Stover, MO Regional Weather

Expires:202405182000;;438543
ASUS43 KEAX 181915
RWREAX

WEATHER ROUNDUP FOR EASTERN KANSAS AND NORTHWEST MISSOURI
NATIONAL WEATHER SERVICE KANSAS CITY/PLEASANT HILL MO
200 PM CDT SAT MAY 18 2024


MOZ041-047>049-056>058-063>065-088>090-097-182000-
...EASTERN AND SOUTHERN MISSOURI...
  
CITY           SKY/WX    TMP DP  RH WIND       PRES   REMARKS
ST. LOUIS INTL MOSUNNY   86  62  44 W5        29.88F                  
SPIRIT OF STL  SUNNY     83  63  50 CALM      29.86F                  
COLUMBIA       PTSUNNY   83  63  50 S10       29.88F                  
JEFFERSON CITY MOSUNNY   84  63  49 MISG      29.87F                  
MEXICO         MOSUNNY   82  63  51 SW5       29.88S                  
HANNIBAL       MOSUNNY   82  63  51 SW12      29.87S                  
ROLLA          PTSUNNY   81  65  58 SW6       29.91F                  
LEBANON        PTSUNNY   81  61  50 SW5       29.93S                  
OSAGE BEACH    MOSUNNY   81  63  54 W7        29.90F                  
SPRINGFIELD    MOSUNNY   82  64  54 MISG      29.91S                  
BRANSON          N/A     82  63  51 CALM      29.93F                  
JOPLIN         MOSUNNY   85  63  47 NW6       29.91S                  
WEST PLAINS    MOSUNNY   82  61  48 VRB3      29.91F                  

$$


SKY/WX - Weather  TMP - Temperature  DP - Dew Point  RH - Humidity
WIND - Wind Direction/Speed PRES - Barometric Pressure VSB - Visibility
WCI - Wind Chill Index E13G22 Wind - East Wind 13 mph/Gusts of 22 mph

Trending Headlines

Trending Entertainment Headlines

Stover Radar Loop

Use the map search tool if you want to place a location marker on the radar map...

Stover Quick Facts

National Two Day Weather Forecast


E-mail the Stover Weather Forecast

Voice your opinion or tell us about page issues...